Location: Ste-F�licit�
(48.8999°N, 67.3360°W)
Time: 10:00:47
(UTC-04:00)

ISS - Visible Passes

Search period start: 24 June 2019 00:00
Search period end: 04 July 2019 00:00
Orbit: 407 x 418 km, 51.6° (Epoch: 24 June)

Date Brightness Start Highest point End Pass type
(mag) Time Alt. Az. Time Alt. Az. Time Alt. Az.
30 Jun -1.2 03:41:21 10° SSE 03:42:13 11° SE 03:43:06 10° ESE visible
02 Jul -2.1 03:36:37 10° SSW 03:39:19 23° SE 03:42:00 10° E visible
03 Jul -1.6 02:48:28 12° SSE 02:49:53 15° SE 02:51:53 10° E visible
